EDT,Max TemperatureF,Mean TemperatureF,Min TemperatureF,Max Dew PointF,MeanDew PointF,Min DewpointF,Max Humidity, Mean Humidity, Min Humidity, Max Sea Level PressureIn, Mean Sea Level PressureIn, Min Sea Level PressureIn, Max VisibilityMiles, Mean VisibilityMiles, Min VisibilityMiles, Max Wind SpeedMPH, Mean Wind SpeedMPH, Max Gust SpeedMPH,PrecipitationIn, CloudCover, Events, WindDirDegrees
2012-10-1,70,58,45,53,48,43,93,78,47,29.98,29.91,29.85,,,,7,1,16,0.00,,,200
2012-10-2,62,58,55,60,57,53,100,93,84,30.03,30.00,29.97,,,,6,1,,2.04,,,48
2012-10-3,72,65,59,68,63,58,100,94,90,30.13,30.06,30.01,,,,4,1,,0.03,,,40
2012-10-4,73,68,61,68,65,61,100,94,82,30.14,30.10,30.06,,,,5,0,,0.62,,,150
2012-10-5,78,66,54,62,58,53,100,84,50,30.10,30.02,29.93,,,,6,1,,0.00,,,210
2012-10-6,70,58,46,60,53,45,97,83,65,30.02,29.88,29.79,,,,10,2,20,0.00,,,251
2012-10-7,52,47,42,45,41,37,93,79,61,30.13,30.08,30.01,,,,6,1,,0.12,,,290
2012-10-8,52,44,37,45,41,37,97,83,59,30.29,30.24,30.14,,,,6,0,,0.00,,,50
2012-10-9,57,52,46,52,48,44,93,85,69,30.24,30.18,30.09,,,,6,2,,0.00,,,44
2012-10-10,64,58,50,55,49,36,97,78,52,30.08,29.93,29.81,,,,9,2,17,0.17,,,217
2012-10-11,59,50,42,38,34,30,82,59,35,30.22,30.15,30.00,,,,9,2,,0.00,,,249
2012-10-12,55,45,36,42,33,24,96,70,42,30.46,30.22,30.09,,,,12,2,24,0.00,,,343
2012-10-13,54,40,28,34,26,19,92,59,26,30.54,30.44,30.31,,,,7,1,,0.00,,,219
2012-10-14,69,58,48,52,46,38,77,66,55,30.27,30.11,29.93,,,,14,5,23,0.00,,,211
2012-10-15,69,60,54,62,56,51,97,85,70,29.91,29.74,29.65,,,,8,4,,0.55,,,207
2012-10-16,57,48,39,50,38,33,93,66,40,29.94,29.82,29.71,,,,10,3,22,0.00,,,333
2012-10-17,63,49,35,44,38,34,97,76,37,30.04,29.99,29.94,,,,5,1,,0.00,,,202
2012-10-18,66,52,39,55,46,37,97,78,50,30.04,30.00,29.91,,,,9,2,16,0.00,,,177
2012-10-19,68,64,60,65,62,56,97,91,83,29.88,29.75,29.65,,,,9,4,17,0.59,,,201
2012-10-20,64,54,44,55,47,38,100,76,44,29.86,29.74,29.66,,,,8,2,,0.00,,,221
2012-10-21,64,52,39,43,40,35,93,69,35,30.06,29.97,29.88,,,,9,2,,0.00,,,227
2012-10-22,68,54,41,46,41,38,93,67,35,30.14,30.09,30.04,,,,9,2,16,0.00,,,307
2012-10-23,57,50,44,54,48,42,97,90,75,30.15,30.11,30.09,,,,4,0,,0.08,,,280
2012-10-24,63,56,52,55,53,51,97,91,81,30.20,30.14,30.10,,,,5,1,,0.04,,,25
2012-10-25,60,57,54,55,53,52,97,88,78,30.27,30.24,30.20,,,,5,0,,0.01,,,205
2012-10-26,63,58,55,57,55,54,97,87,75,30.24,30.18,30.12,,,,4,0,,0.00,,,-1
2012-10-27,62,58,55,56,55,53,93,86,78,30.10,30.01,29.94,,,,4,0,,0.00,,,-1
2012-10-28,55,54,54,53,48,42,93,77,62,29.92,29.83,29.69,,,,12,6,22,0.00,,,40
2012-10-29,60,54,52,56,49,44,93,83,71,29.68,29.23,28.60,,,,24,13,43,0.84,,,34
2012-10-30,,,,,,,,,,,,,,,,,,,,,,
2012-10-31,,,,,,,,,,,,,,,,,,,,,,